Change the Weather History Date:

Sunday, November 10, 2013

  Actual Average Record
Temperature  
Mean Temperature 24 °F -  
Max Temperature 33 °F 6 °F 33 °F (2013)
Min Temperature 15 °F -1 °F -23 °F (1999)
Degree Days  
Heating Degree Days 41    
Moisture  
Dew Point 9 °F    
Average Humidity 54    
Maximum Humidity 69    
Minimum Humidity 40    
Precipitation  
Precipitation 0.00 in - - ()
Sea Level Pressure  
Sea Level Pressure 29.28 in    
Wind  
Wind Speed 18 mph (SSW)    
Max Wind Speed 29 mph    
Max Gust Speed 36 mph    
Visibility 7 miles    
Events      
Averages and records for this station are not official NWS values.
T = Trace of Precipitation, MM = Missing Value Source: NWS Daily Summary

Daily Weather History Graph

Daily Weather History Graph

Search for Another Location

Airport or City:

Trip Planner

Search our weather history database for the weather conditions in past years. The results will help you decide how hot, cold, wet, or windy it might be!

Date:

Astronomy

Nov. 10, 2013 Rise Set
Actual Time 10:00 AM AKST 3:39 PM AKST
Civil Twilight 8:46 AM AKST 4:54 PM AKST
Nautical Twilight 7:35 AM AKST 6:05 PM AKST
Astronomical Twilight 6:29 AM AKST 7:10 PM AKST
Moon 2:58 PM AKST (11/10) No Moon Set
Length of Visible Light 8h 07m
Length of Day
5h 38m
First Quarter, 57% of the Moon is Illuminated
Nov 10
First Quarter
Nov 17
Full
Nov 25
Last Quarter
Dec 2
New
Dec 9
First Quarter

Hourly Weather History & Observations

Time (AKST) Temp. Windchill Dew Point Humidity Pressure Visibility Wind Dir Wind Speed Gust Speed Precip Events Conditions
12:16 AM 33.8 °F 22.2 °F 21.2 °F 60% 29.07 in 8.0 mi SSE 20.7 mph 27.6 mph N/A   Overcast
12:36 AM 33.8 °F 23.2 °F 21.2 °F 60% 29.08 in 6.0 mi South 17.3 mph 25.3 mph N/A   Overcast
12:56 AM 33.8 °F 22.5 °F 19.4 °F 56% 29.08 in 4.0 mi South 19.6 mph 29.9 mph N/A   Overcast
1:16 AM 33.8 °F 21.9 °F 19.4 °F 56% 29.08 in 5.0 mi South 21.9 mph 27.6 mph N/A   Overcast
1:36 AM 32.0 °F 19.8 °F 21.2 °F 64% 29.07 in 2.5 mi South 20.7 mph 29.9 mph N/A   Overcast
1:56 AM 32.0 °F 19.8 °F 21.2 °F 64% 29.06 in 1.8 mi South 20.7 mph 32.2 mph N/A   Overcast
2:16 AM 30.2 °F 16.5 °F 21.2 °F 69% 29.06 in 2.0 mi South 24.2 mph 33.4 mph N/A   Overcast
2:36 AM 30.2 °F 17.8 °F 21.2 °F 69% 29.08 in 2.5 mi South 19.6 mph 29.9 mph N/A   Mostly Cloudy
2:56 AM 30.2 °F 18.9 °F 21.2 °F 69% 29.10 in 3.0 mi South 16.1 mph 29.9 mph N/A   Overcast
3:16 AM 30.2 °F 18.5 °F 19.4 °F 64% 29.12 in 6.0 mi SSE 17.3 mph 25.3 mph N/A   Mostly Cloudy
3:36 AM 30.2 °F 20.2 °F 19.4 °F 64% 29.13 in 7.0 mi South 12.7 mph 18.4 mph N/A   Overcast
3:56 AM 30.2 °F 19.8 °F 17.6 °F 60% 29.14 in 9.0 mi South 13.8 mph 18.4 mph N/A   Overcast
4:16 AM 30.2 °F 18.5 °F 17.6 °F 60% 29.14 in 8.0 mi South 17.3 mph 23.0 mph N/A   Overcast
4:36 AM 30.2 °F 17.1 °F 17.6 °F 60% 29.14 in 4.0 mi SSE 21.9 mph 26.5 mph N/A   Overcast
4:56 AM 28.4 °F 14.4 °F 17.6 °F 64% 29.15 in 2.5 mi South 23.0 mph 31.1 mph N/A   Mostly Cloudy
5:16 AM 28.4 °F 14.4 °F 17.6 °F 64% 29.15 in 3.0 mi South 23.0 mph 28.8 mph N/A   Overcast
5:36 AM 28.4 °F 13.8 °F 15.8 °F 59% 29.16 in 5.0 mi South 25.3 mph 31.1 mph N/A   Overcast
5:56 AM 28.4 °F 13.0 °F 15.8 °F 59% 29.16 in 2.5 mi South 28.8 mph 34.5 mph N/A   Overcast
6:16 AM 26.6 °F 10.6 °F 15.8 °F 64% 29.14 in 1.2 mi South 28.8 mph 35.7 mph N/A   Overcast
6:36 AM 26.6 °F 11.1 °F 15.8 °F 64% 29.17 in 2.0 mi SSW 26.5 mph 31.1 mph N/A   Overcast
6:56 AM 26.6 °F 13.4 °F 10.4 °F 51% 29.19 in 4.0 mi SSW 18.4 mph 31.1 mph N/A   Overcast
7:16 AM 26.6 °F 14.3 °F 10.4 °F 51% 29.21 in 7.0 mi SW 16.1 mph 27.6 mph N/A   Overcast
7:36 AM 26.6 °F 13.8 °F 10.4 °F 51% 29.22 in 8.0 mi SSW 17.3 mph 26.5 mph N/A   Overcast
7:56 AM 26.6 °F 13.8 °F 10.4 °F 51% 29.22 in 4.0 mi SSW 17.3 mph 26.5 mph N/A   Overcast
8:16 AM 26.6 °F 12.4 °F 10.4 °F 51% 29.23 in 7.0 mi South 21.9 mph 26.5 mph N/A   Overcast
8:36 AM 24.8 °F 11.1 °F 10.4 °F 54% 29.25 in 5.0 mi South 18.4 mph - N/A   Overcast
8:56 AM 24.8 °F 10.7 °F 8.6 °F 50% 29.25 in 10.0 mi South 19.6 mph 23.0 mph N/A   Overcast
9:16 AM 24.8 °F 11.5 °F 6.8 °F 46% 29.25 in 6.0 mi SSW 17.3 mph 27.6 mph N/A   Overcast
9:36 AM 24.8 °F 11.9 °F 6.8 °F 46% 29.26 in 9.0 mi SSW 16.1 mph 26.5 mph N/A   Overcast
9:56 AM 24.8 °F 11.9 °F 6.8 °F 46% 29.27 in 9.0 mi SW 16.1 mph 31.1 mph N/A   Overcast
10:16 AM 23.0 °F 10.1 °F 8.6 °F 54% 29.28 in 10.0 mi SW 15.0 mph - N/A   Overcast
10:36 AM 23.0 °F 10.1 °F 8.6 °F 54% 29.28 in 10.0 mi SW 15.0 mph 21.9 mph N/A   Overcast
10:56 AM 24.8 °F 13.4 °F 8.6 °F 50% 29.29 in 6.0 mi SSW 12.7 mph 33.4 mph N/A   Overcast
11:16 AM 24.8 °F 11.9 °F 6.8 °F 46% 29.30 in 7.0 mi SW 16.1 mph 21.9 mph N/A   Overcast
11:36 AM 24.8 °F 11.5 °F 6.8 °F 46% 29.29 in 10.0 mi SW 17.3 mph 23.0 mph N/A   Overcast
11:56 AM 24.8 °F 10.7 °F 5.0 °F 43% 29.29 in 8.0 mi SSW 19.6 mph 27.6 mph N/A   Overcast
12:16 PM 24.8 °F 10.3 °F 6.8 °F 46% 29.29 in 4.0 mi South 20.7 mph 31.1 mph N/A   Overcast
12:36 PM 24.8 °F 12.4 °F 5.0 °F 43% 29.30 in 7.0 mi SSW 15.0 mph 27.6 mph N/A   Overcast
12:56 PM 23.0 °F 9.2 °F 5.0 °F 46% 29.30 in 9.0 mi South 17.3 mph 26.5 mph N/A   Overcast
1:16 PM 23.0 °F 8.0 °F 6.8 °F 50% 29.31 in 5.0 mi SSW 20.7 mph 32.2 mph N/A   Overcast
1:36 PM 24.8 °F 10.7 °F 3.2 °F 40% 29.31 in 5.0 mi SSW 19.6 mph 31.1 mph N/A   Overcast
1:56 PM 23.0 °F 8.3 °F 3.2 °F 43% 29.31 in 3.0 mi SSW 19.6 mph 29.9 mph N/A   Mostly Cloudy
2:16 PM 23.0 °F 7.6 °F 3.2 °F 43% 29.32 in 9.0 mi SSW 21.9 mph 28.8 mph N/A   Mostly Cloudy
2:36 PM 21.2 °F 6.4 °F 3.2 °F 46% 29.32 in 9.0 mi SSW 18.4 mph 26.5 mph N/A   Mostly Cloudy
2:56 PM 21.2 °F 4.5 °F 3.2 °F 46% 29.31 in 5.0 mi SSW 24.2 mph 33.4 mph N/A   Mostly Cloudy
3:16 PM 21.2 °F 7.3 °F 1.4 °F 42% 29.32 in 8.0 mi SSW 16.1 mph 31.1 mph N/A   Partly Cloudy
3:36 PM 19.4 °F 5.5 °F 3.2 °F 49% 29.33 in 10.0 mi SW 15.0 mph 21.9 mph N/A   Mostly Cloudy
3:56 PM 19.4 °F 7.2 °F 6.8 °F 58% 29.33 in 10.0 mi SW 11.5 mph 21.9 mph N/A   Overcast
4:16 PM 19.4 °F 5.0 °F 8.6 °F 63% 29.33 in 10.0 mi SSW 16.1 mph 26.5 mph N/A   Overcast
4:36 PM 21.2 °F 5.2 °F 3.2 °F 46% 29.34 in 8.0 mi SSW 21.9 mph 29.9 mph N/A   Overcast
4:56 PM 21.2 °F 5.6 °F 1.4 °F 42% 29.34 in 10.0 mi SSW 20.7 mph 29.9 mph N/A   Mostly Cloudy
5:16 PM 19.4 °F 4.5 °F 1.4 °F 46% 29.35 in 10.0 mi SW 17.3 mph 21.9 mph N/A   Clear
5:36 PM 17.6 °F 4.3 °F 3.2 °F 53% 29.35 in 10.0 mi SW 12.7 mph 18.4 mph N/A   Clear
5:56 PM 17.6 °F 5.0 °F 3.2 °F 53% 29.36 in 10.0 mi SW 11.5 mph 18.4 mph N/A   Mostly Cloudy
6:16 PM 19.4 °F 6.6 °F 3.2 °F 49% 29.36 in 10.0 mi SW 12.7 mph - N/A   Overcast
6:36 PM 19.4 °F 6.0 °F 5.0 °F 54% 29.37 in 10.0 mi SW 13.8 mph 17.3 mph N/A   Overcast
6:56 PM 19.4 °F 7.9 °F 5.0 °F 54% 29.37 in 10.0 mi SSW 10.4 mph 19.6 mph N/A   Overcast
7:16 PM 19.4 °F 7.9 °F 5.0 °F 54% 29.38 in 10.0 mi SW 10.4 mph - N/A   Overcast
7:36 PM 19.4 °F 6.0 °F 6.8 °F 58% 29.39 in 10.0 mi SW 13.8 mph 20.7 mph N/A   Mostly Cloudy
7:56 PM 17.6 °F 5.0 °F 6.8 °F 63% 29.40 in 10.0 mi SW 11.5 mph 19.6 mph N/A   Mostly Cloudy
8:16 PM 17.6 °F 5.0 °F 6.8 °F 63% 29.41 in 10.0 mi SW 11.5 mph - N/A   Mostly Cloudy
8:36 PM 17.6 °F 3.7 °F 5.0 °F 58% 29.42 in 10.0 mi SW 13.8 mph 18.4 mph N/A   Overcast
8:56 PM 15.8 °F 2.1 °F 6.8 °F 68% 29.42 in 10.0 mi SW 12.7 mph 17.3 mph N/A   Mostly Cloudy
9:16 PM 17.6 °F 4.3 °F 6.8 °F 63% 29.43 in 10.0 mi SW 12.7 mph 19.6 mph N/A   Overcast
9:36 PM 17.6 °F 5.7 °F 5.0 °F 58% 29.43 in 10.0 mi SW 10.4 mph - N/A   Overcast
9:56 PM 17.6 °F 5.0 °F 3.2 °F 53% 29.44 in 10.0 mi SW 11.5 mph 17.3 mph N/A   Overcast
10:16 PM 17.6 °F 5.0 °F 3.2 °F 53% 29.45 in 10.0 mi SW 11.5 mph 16.1 mph N/A   Overcast
10:36 PM 17.6 °F 4.3 °F 1.4 °F 49% 29.45 in 10.0 mi SW 12.7 mph 16.1 mph N/A   Overcast
10:56 PM 17.6 °F 3.7 °F 1.4 °F 49% 29.46 in 10.0 mi WSW 13.8 mph 19.6 mph N/A   Overcast
11:16 PM 17.6 °F 5.0 °F 1.4 °F 49% 29.47 in 10.0 mi WSW 11.5 mph - N/A   Overcast
11:36 PM 17.6 °F 4.3 °F 1.4 °F 49% 29.48 in 10.0 mi WSW 12.7 mph 18.4 mph N/A   Overcast
11:56 PM 17.6 °F 3.2 °F 1.4 °F 49% 29.49 in 10.0 mi WSW 15.0 mph 20.7 mph N/A   Overcast